SCP
-0 0 0 0 0 0 0 -0 0 0 0 0 0 -0 0 -0 -0 -0 -0 -0 -0 -0 -0 0 0 0 0 0 0 0 0 0 0 0 0 0 0 0 0 0 0 0 0 0 0 0 0 0 0
0 0 0 0 0 -0 -0 -0 -0 0 0 0 -0 -0 0 0 0 -0 -0 -0 -0 -0 -0 -0 -0 0 0 0 0 0 0 0 0 0 0 0 0 0 0 0 0 0 0 0 0 0 0 0 0
0 0 0 0 0 -0 0 0 -0 0 -0 0 0 0 0 0 0 0 -0 -0 -0 0 -0 -0 -0 0 0 0 0 0 0 0 0 0 0 0 0 0 0 0 0 0 0 0 0 0 0 0 0
0 0 0 -0 -0 -0 -0 -0 0 0 0 -0 0 0 0 -0 -0 -0 0 0 0 0 0 0 0 0 0 0 0 0 0 0 0 0 0 0 0 0 0 0 0 0 0 0 0 0 0 0 0
0 0 0 0 -0 -0 -0 0 0 -0 -0 -0 0 0 0 -0 -0 0 -0 -0 -0 0 0 0 0 0 0 0 0 0 0 0 0 0 0 0 0 0 0 0 0 0 0 0 0 0 0 0 0
0 0 0 0 0 0 0 0 0 0 -0 -0 -0 0 0 -0 -0 -0 -0 -0 0 0 -0 -0 0 0 0 0 0 0 0 0 0 0 0 0 0 0 0 0 0 0 0 0 0 0 0 0 0
0 0 0 0 0 0 0 0 0 0 0 -0 0 0 0 -0 -0 -0 -0 -0 -0 -0 -0 0 0 0 0 0 0 0 0 1 0 0 0 0 0 0 0 0 0 0 0 0 0 0 0 0 0
0 0 0 0 0 0 0 0 0 0 0 0 0 0 0 -0 -0 -0 0 0 0 0 0 0 0 0 0 0 0 0 0 0 0 0 0 0 0 0 0 0 0 0 0 0 0 0 0 0 0
0 0 0 0 0 0 0 0 0 0 -0 -0 0 -0 -0 -0 0 0 0 0 0 0 0 0 0 0 0 0 0 0 0 0 0 0 0 0 0 0 0 0 0 0 0 0 0 0 0 1 0
-0 0 0 0 0 0 0 0 0 0 -0 -0 -0 -0 -0 -0 -0 -0 0 0 0 0 0 0 0 0 0 0 0 0 0 0 0 0 0 0 0 0 0 0 0 0 0 0 0 0 0 0 1
0 0 0 0 0 0 0 0 0 0 -0 -0 -0 -0 -0 -0 -0 0 0 0 0 0 0 0 0 0 0 0 0 0 0 0 0 0 0 0 0 0 0 0 -0 0 0 0 0 0 0 0 0
0 0 0 0 0 0 0 0 0 0 0 0 0 -0 -0 -0 0 0 0 0 0 -0 -0 0 0 0 0 0 0 0 0 0 0 0 0 0 0 0 -0 0 0 0 0 0 0 0 0 0 0
0 0 0 0 0 0 0 0 0 0 -0 -0 0 0 -0 0 0 0 0 0 -0 0 0 0 0 0 0 0 0 0 0 0 0 0 0 0 0 0 0 0 0 0 0 0 0 0 0 0 0
0 0 0 0 0 0 0 -0 0 -0 -0 -0 -0 0 0 0 0 0 0 0 0 0 -0 -0 -0 0 0 0 0 0 0 0 0 0 0 0 0 0 0 0 0 0 0 0 0 0 0 0 0
0 0 0 0 0 0 0 0 0 -0 -0 -0 -0 0 0 0 0 0 0 0 0 -0 -0 -0 -0 0 0 0 0 0 0 0 0 0 0 0 0 0 0 0 0 0 0 0 0 0 0 0 0
0 0 0 0 0 0 0 0 -0 -0 -0 0 0 0 0 0 0 0 0 0 0 0 0 -0 -0 0 0 0 0 0 0 0 0 0 0 0 0 0 0 0 0 0 0 0 0 0 0 0 0
0 0 0 0 0 0 0 0 0 0 -0 0 0 0 0 0 0 0 0 0 0 0 0 0 0 0 0 0 0 0 0 0 0 0 0 0 0 0 0 0 0 0 0 0 0 0 0 0 0
0 0 0 0 0 0 0 0 0 0 0 0 0 0 0 0 0 0 0 0 0 0 0 0 0 0 0 0 0 0 0 0 0 0 0 0 0 0 0 0 0 0 0 0 0 0 0 0 0
0 0 0 0 0 0 0 0 0 0 0 0 0 0 0 0 0 0 0 0 0 0 0 0 0 0 0 0 0 0 0 0 0 0 0 0 0 0 0 0 0 0 0 0 0 0 0 0 0
0 0 0 0 0 0 0 0 0 0 0 0 -0 0 0 0 0 0 0 0 0 0 0 0 0 0 0 0 0 0 0 0 0 0 0 0 0 0 0 0 0 0 0 0 0 0 0 0 0
0 0 0 0 0 0 0 0 0 0 0 -0 -0 0 0 0 0 0 0 0 0 0 0 0 0 0 0 0 0 0 0 0 0 0 0 0 0 0 0 0 0 0 0 0 0 0 0 0 0
0 0 0 0 0 0 0 0 0 0 0 0 0 0 0 0 0 0 0 0 0 0 0 0 0 0 0 0 0 0 0 0 0 0 0 0 0 0 0 0 0 0 0 0 0 0 0 0 0
0 0 0 0 0 0 0 0 0 0 0 -0 -0 0 -0 0 0 0 0 0 0 0 0 0 0 0 0 0 0 0 0 0 0 0 0 0 0 0 0 0 0 0 0 0 0 0 0 0 0
-0 0 0 0 0 0 0 0 0 0 0 0 -0 0 0 0 0 0 0 0 0 0 0 0 0 0 0 0 0 0 0 0 0 0 0 0 0 0 0 0 0 0 0 0 0 0 0 0 0
0 0 0 0 0 0 0 0 0 0 0 0 0 0 0 0 0 0 0 0 0 0 0 0 0 0 0 0 0 0 0 0 0 0 0 0 0 0 0 0 0 0 0 0 0 0 0 0 0
0 0 0 0 0 0 0 0 0 0 0 0 0 0 0 0 0 0 0 0 0 0 0 0 0 0 0 0 0 0 0 0 0 0 0 0 0 0 0 0 0 0 0 0 0 0 0 0 0
0 0 0 0 0 0 0 0 0 0 0 0 0 0 0 0 0 0 0 0 0 0 0 0 0 0 0 0 0 0 0 0 0 0 0 0 0 0 0 0 0 0 0 0 0 0 0 0 0
0 0 0 0 0 0 0 0 0 0 0 0 0 0 0 0 0 0 0 0 0 0 0 0 0 0 0 0 0 0 0 0 0 0 0 0 0 0 0 0 0 0 0 0 0 0 0 0 0
0 0 0 0 0 0 0 0 0 0 0 0 0 0 0 0 0 0 0 0 0 0 0 0 0 0 0 0 0 0 0 0 0 0 0 0 0 0 0 0 0 0 0 0 0 0 0 0 0
0 0 0 0 0 0 0 0 0 0 0 0 0 0 0 0 0 0 0 0 0 0 0 0 0 0 0 0 0 0 0 0 0 0 0 0 0 0 0 0 0 0 0 0 0 0 0 0 0
Wind_Speed_500mb
9 12 10 7 4 10 12 15 12 14 9 13 16 21 25 21 12 10 13 12 13 12 12 12 12 12 10 9 10 12 14 16 19 20 21 22 20 18 17 16 16 15 15 13 11 11 10 9 9
12 11 8 5 9 16 13 19 28 28 29 30 37 37 36 19 20 14 9 13 13 13 11 10 10 11 11 11 12 14 18 19 20 20 24 25 23 21 20 22 23 23 23 21 20 17 16 15 14
13 13 6 7 6 11 11 19 20 14 22 15 9 21 11 15 17 10 13 10 10 9 9 10 10 9 9 9 12 14 17 19 20 23 24 24 23 23 24 25 25 26 27 28 28 26 22 20 19
4 9 10 12 19 9 8 12 15 15 18 18 18 21 18 26 10 18 16 15 10 7 8 10 11 12 12 13 14 15 15 17 21 26 26 26 24 24 24 25 27 30 31 32 32 32 30 28 25
9 6 8 11 16 9 8 17 11 12 8 19 12 15 16 25 25 25 17 10 7 9 14 17 20 17 13 16 17 16 14 17 19 22 26 30 30 28 27 28 25 28 31 34 35 37 36 35 35
5 5 6 9 12 8 12 16 24 28 20 21 23 16 16 15 13 22 13 6 8 15 21 26 26 20 15 15 16 16 15 17 20 24 28 31 30 31 30 29 28 28 28 33 36 36 38 37 41
3 3 6 14 14 9 9 20 22 22 18 25 13 13 14 25 20 19 15 10 13 19 21 25 27 24 16 13 14 16 17 19 23 27 32 36 36 39 38 38 34 31 30 33 35 38 42 42 44
7 6 9 5 12 8 6 14 20 17 11 5 7 11 11 16 18 16 13 17 18 18 20 23 25 25 23 22 23 25 25 24 28 31 31 32 37 39 39 33 28 27 28 29 30 33 39 41 42
7 4 8 9 15 10 9 14 15 16 33 29 24 33 21 20 17 13 12 14 19 22 27 27 25 25 26 27 27 27 27 28 31 28 26 27 24 28 37 34 31 31 30 30 35 38 40 38 39
6 3 6 1 15 12 17 23 16 15 34 37 41 33 27 21 14 12 13 21 27 32 36 36 36 36 33 31 29 30 29 28 25 21 19 24 28 30 29 33 37 40 42 42 43 45 48 49 41
8 6 13 11 28 22 26 13 11 34 15 27 28 30 24 22 22 25 29 33 35 38 39 42 40 37 32 27 25 26 25 24 23 21 24 29 33 38 43 48 50 48 46 42 41 40 41 39 41
15 14 11 22 18 13 12 13 14 7 20 27 26 26 24 27 31 33 33 35 40 43 44 44 41 34 27 22 19 16 14 16 20 27 32 37 43 47 46 46 45 44 42 36 33 33 36 34 34
23 22 20 18 33 39 33 30 10 23 22 21 24 25 28 32 30 28 29 37 39 42 46 49 40 31 23 14 13 12 15 18 23 32 34 38 38 41 45 45 45 43 41 40 36 31 32 35 34
24 48 38 26 30 20 21 18 12 16 11 11 19 21 27 26 20 21 26 34 38 42 50 52 45 37 26 19 18 18 20 25 31 33 35 34 37 43 42 44 46 45 46 45 42 40 37 37 37
46 30 27 20 11 14 19 22 15 12 11 17 12 15 20 18 15 17 23 29 35 42 48 54 48 35 24 20 18 21 23 26 29 29 31 37 41 42 41 45 47 48 48 45 46 43 39 35 35
11 11 11 7 8 6 4 8 4 10 6 14 9 10 17 16 14 13 17 24 32 34 43 51 50 35 26 23 22 22 23 25 24 29 33 37 40 42 44 46 48 50 49 48 46 46 43 38 35
5 5 8 11 5 2 3 17 21 13 3 3 3 9 13 15 12 5 9 17 23 34 41 50 49 34 26 25 25 24 24 22 27 31 33 36 40 43 46 49 50 50 49 46 44 38 38 38 36
12 9 7 9 7 4 11 14 26 19 16 12 12 14 17 15 11 4 5 10 22 30 36 44 44 30 22 22 24 24 24 25 27 30 33 37 42 46 49 49 47 44 43 40 44 41 31 30 34
6 13 17 4 6 3 7 18 27 25 21 17 16 17 20 18 15 10 10 8 16 27 31 36 38 31 21 20 22 25 27 26 26 29 35 40 44 47 48 45 43 42 42 43 43 43 35 28 33
18 28 12 10 4 1 10 9 16 18 15 21 23 23 23 22 22 17 15 10 13 21 23 28 35 32 26 25 26 28 28 27 28 32 36 41 44 47 45 44 42 42 42 42 43 45 41 31 32
11 7 17 10 13 13 10 6 14 12 19 21 27 27 27 29 27 24 20 16 14 16 17 23 28 29 25 23 27 27 27 26 26 30 35 42 45 46 42 40 39 41 43 42 43 42 42 39 27
9 4 19 27 10 2 4 5 12 13 18 23 29 33 31 32 31 27 26 22 16 12 15 20 25 25 26 18 21 27 28 29 32 33 35 40 44 42 41 38 38 40 42 42 42 40 40 36 33
8 20 23 12 7 4 8 8 6 5 20 26 34 35 32 33 35 33 31 27 15 12 15 18 23 23 25 14 18 23 25 28 30 30 31 37 40 39 39 38 39 39 43 43 43 40 36 32 28
38 21 12 7 2 6 4 5 6 12 20 16 32 42 37 36 37 32 30 28 17 12 15 14 19 17 23 14 16 19 22 23 27 28 29 37 38 37 37 39 38 40 42 44 43 39 33 28 26
6 12 4 4 6 3 6 6 13 15 20 18 26 34 34 37 31 30 34 26 16 14 13 12 16 13 20 15 14 17 21 22 26 28 30 35 37 38 39 39 39 41 42 43 39 34 30 25 23
27 5 6 7 5 3 5 9 1 3 12 18 23 31 31 34 35 34 32 23 14 14 11 10 13 7 14 14 14 17 19 20 24 26 28 31 34 36 36 35 36 37 40 44 38 30 29 26 19
12 11 5 11 2 6 2 8 18 6 6 15 17 27 34 40 40 37 33 24 16 11 10 10 13 7 7 13 14 17 19 18 20 25 26 28 31 32 31 31 33 35 38 41 39 31 28 28 25
5 16 4 3 1 3 5 8 8 8 13 16 20 29 33 33 34 40 32 23 17 9 11 11 13 11 6 8 12 17 19 18 18 22 24 25 27 28 26 26 27 32 36 39 38 35 30 25 25
8 6 9 5 4 3 4 5 9 12 12 21 30 31 34 36 37 39 34 25 19 13 12 13 14 15 12 9 11 14 17 19 18 20 21 23 25 26 22 20 22 26 30 34 37 36 34 31 30
1 3 9 5 4 1 3 7 1 6 7 23 28 28 30 33 35 35 34 27 21 16 13 14 14 13 13 14 14 15 17 19 21 20 19 21 22 23 20 19 18 21 23 29 32 34 36 37 33
Wind_Direction_500mb
92 115 113 26 84 74 57 27 341 41 56 33 66 73 80 54 34 68 85 71 94 100 99 88 78 71 57 38 27 26 22 18 14 9 2 346 330 316 305 294 281 269 264 261 267 276 282 291 308
73 88 42 39 74 69 61 39 63 82 88 83 80 89 73 64 44 65 64 90 106 102 98 86 65 52 40 23 12 12 15 15 12 8 355 341 330 323 314 303 293 284 275 269 266 269 276 282 288
84 66 42 56 61 71 73 69 77 44 43 53 91 59 48 5 20 36 69 100 92 75 56 36 20 18 10 9 3 1 6 9 7 356 350 347 337 326 315 297 282 274 274 274 269 267 269 269 268
73 58 64 67 75 67 89 85 61 61 55 54 106 77 78 24 32 55 92 96 79 57 35 11 356 341 341 344 353 352 349 348 352 348 349 344 339 333 327 312 296 285 278 271 268 264 259 260 256
52 53 68 87 72 74 81 86 70 26 62 46 81 95 78 36 56 73 86 90 83 33 2 350 348 331 323 334 339 339 335 335 338 336 343 342 339 337 332 324 309 295 286 280 277 272 270 266 262
18 57 104 101 91 87 86 94 93 75 59 76 68 76 58 23 72 72 97 113 33 12 6 357 349 342 322 328 319 325 321 320 318 332 336 336 337 336 334 329 320 311 301 294 289 288 283 271 267
46 54 97 125 117 104 89 88 72 76 73 45 81 75 77 46 78 98 113 75 38 28 12 9 360 359 344 336 331 330 316 308 322 322 323 329 328 329 325 325 317 311 305 303 299 290 287 279 270
126 92 131 91 144 113 85 103 95 83 51 75 71 74 82 77 93 129 97 49 41 28 16 10 9 6 5 354 342 330 324 317 317 319 324 333 330 328 329 328 326 324 322 318 314 309 300 285 273
101 110 141 135 161 140 122 117 75 84 90 83 88 87 92 98 99 99 72 49 32 26 18 16 7 358 352 343 338 335 331 323 320 321 325 334 345 345 339 332 330 329 326 321 315 315 317 315 287
51 73 145 52 132 135 98 98 108 124 107 80 80 87 92 118 110 83 61 48 28 16 7 360 354 349 346 340 338 337 333 329 323 327 347 359 352 346 338 328 324 321 315 312 308 306 307 307 301
59 109 120 86 124 114 97 91 114 132 101 77 91 97 110 101 77 62 52 38 26 16 4 0 353 345 338 339 341 337 341 349 346 353 356 351 345 340 335 333 330 327 323 320 315 311 312 309 305
107 80 95 134 101 94 79 93 124 92 96 105 90 118 93 77 70 61 51 37 25 16 14 8 4 358 354 350 348 360 353 359 352 352 346 346 344 342 346 351 353 355 353 347 336 328 323 321 318
94 106 80 105 99 94 103 81 79 83 93 107 85 89 87 82 69 60 48 37 26 21 17 13 9 4 7 6 21 25 21 12 9 352 348 348 356 2 3 7 8 7 4 359 352 336 328 328 326
115 113 115 108 102 101 81 56 137 90 85 72 71 94 96 89 86 85 57 42 31 24 20 17 15 21 20 13 14 16 12 2 350 350 355 6 9 8 11 10 9 7 5 3 357 349 332 317 317
125 109 116 137 118 111 88 61 89 109 82 73 68 116 116 110 103 81 59 40 32 25 18 20 21 16 18 17 15 9 359 349 346 360 8 6 5 6 8 5 2 359 357 356 355 353 349 335 320
129 145 140 135 158 72 196 146 147 147 78 60 66 138 144 138 121 81 48 34 26 24 19 20 21 16 17 14 10 2 356 355 5 10 6 3 5 10 5 358 352 351 350 348 346 343 347 348 345
195 167 142 158 238 151 8 147 176 200 174 46 135 170 174 164 140 89 38 27 18 21 18 16 15 11 14 15 15 16 17 17 14 7 6 11 11 5 358 352 347 346 347 349 349 345 341 345 348
200 187 160 179 165 150 100 145 164 194 208 210 214 203 198 184 176 205 343 2 15 6 10 15 15 9 10 15 14 16 14 13 13 16 17 14 6 358 353 352 352 355 355 354 357 358 352 345 346
229 147 125 93 65 117 107 170 177 188 200 215 220 210 207 202 205 228 268 327 354 359 3 11 15 21 28 29 29 26 21 22 21 18 16 9 3 358 358 2 4 9 5 3 0 5 2 358 352
151 131 113 110 55 156 145 170 208 211 216 219 227 216 215 203 218 228 254 289 333 339 358 8 13 21 27 32 27 21 18 23 22 16 11 7 4 2 3 6 9 9 8 6 4 4 5 5 1
123 135 165 136 119 72 150 217 218 218 225 229 233 232 219 214 216 230 247 269 294 325 348 1 12 20 22 28 26 26 28 25 15 12 9 7 4 3 4 5 7 6 2 360 360 358 357 356 360
154 202 142 134 178 155 312 297 235 216 237 230 222 210 207 213 220 228 242 258 272 308 340 349 7 13 14 24 28 30 28 19 10 6 5 3 1 2 3 3 4 2 1 0 359 355 355 353 353
97 138 119 122 91 167 196 260 127 224 248 239 227 217 212 210 213 226 238 248 257 298 326 342 360 4 4 18 24 22 21 15 11 5 2 2 2 3 6 7 7 3 2 358 352 351 353 354 357
135 114 87 98 113 266 126 276 203 186 222 237 222 224 220 213 211 216 229 239 245 280 312 332 351 355 4 11 11 13 10 7 6 3 5 6 9 10 10 10 10 4 1 359 358 357 356 358 9
154 153 131 241 216 260 121 234 274 193 210 224 216 215 213 210 212 208 219 230 235 264 299 325 342 347 3 5 6 6 2 1 2 4 7 9 12 11 12 13 9 9 7 359 355 359 359 3 7
177 222 267 273 237 77 159 242 7 225 269 239 212 203 198 199 213 206 214 221 229 253 295 312 329 326 5 13 9 360 358 358 1 5 6 6 7 8 13 12 14 16 13 13 10 7 8 6 4
175 212 90 107 13 243 227 271 266 239 220 210 190 191 196 207 215 208 210 217 232 249 298 296 309 289 349 10 10 5 359 358 359 3 3 4 6 7 12 13 20 19 18 16 16 14 13 18 18
221 132 190 130 157 294 228 281 276 257 219 205 206 208 209 209 198 205 209 218 228 246 268 274 297 273 279 346 358 4 6 360 358 359 360 0 3 7 9 15 23 26 26 25 25 24 25 23 19
153 170 73 91 317 265 272 297 216 253 232 215 218 213 212 203 195 207 210 213 221 239 257 266 286 266 269 293 329 345 358 5 354 350 350 354 357 1 3 10 18 21 23 25 28 26 24 21 20
111 165 166 246 207 88 313 274 198 227 259 227 225 222 215 207 200 208 214 214 220 228 251 261 279 268 260 272 293 315 330 341 345 340 339 345 347 352 351 357 360 4 5 10 15 16 16 16 8
Wind_Speed_850mb
9 12 10 7 4 10 12 15 12 14 9 13 16 21 25 21 12 10 13 12 13 12 12 12 12 12 10 9 10 12 14 16 19 20 21 22 20 18 17 16 16 15 15 13 11 11 10 9 9
12 11 8 5 9 16 13 19 28 28 29 30 37 37 36 19 20 14 9 13 13 13 11 10 10 11 11 11 12 14 18 19 20 20 24 25 23 21 20 22 23 23 23 21 20 17 16 15 14
13 13 6 7 6 11 11 19 20 14 22 15 9 21 11 15 17 10 13 10 10 9 9 10 10 9 9 9 12 14 17 19 20 23 24 24 23 23 24 25 25 26 27 28 28 26 22 20 19
4 9 10 12 19 9 8 12 15 15 18 18 18 21 18 26 10 18 16 15 10 7 8 10 11 12 12 13 14 15 15 17 21 26 26 26 24 24 24 25 27 30 31 32 32 32 30 28 25
9 6 8 11 16 9 8 17 11 12 8 19 12 15 16 25 25 25 17 10 7 9 14 17 20 17 13 16 17 16 14 17 19 22 26 30 30 28 27 28 25 28 31 34 35 37 36 35 35
5 5 6 9 12 8 12 16 24 28 20 21 23 16 16 15 13 22 13 6 8 15 21 26 26 20 15 15 16 16 15 17 20 24 28 31 30 31 30 29 28 28 28 33 36 36 38 37 41
3 3 6 14 14 9 9 20 22 22 18 25 13 13 14 25 20 19 15 10 13 19 21 25 27 24 16 13 14 16 17 19 23 27 32 36 36 39 38 38 34 31 30 33 35 38 42 42 44
7 6 9 5 12 8 6 14 20 17 11 5 7 11 11 16 18 16 13 17 18 18 20 23 25 25 23 22 23 25 25 24 28 31 31 32 37 39 39 33 28 27 28 29 30 33 39 41 42
7 4 8 9 15 10 9 14 15 16 33 29 24 33 21 20 17 13 12 14 19 22 27 27 25 25 26 27 27 27 27 28 31 28 26 27 24 28 37 34 31 31 30 30 35 38 40 38 39
6 3 6 1 15 12 17 23 16 15 34 37 41 33 27 21 14 12 13 21 27 32 36 36 36 36 33 31 29 30 29 28 25 21 19 24 28 30 29 33 37 40 42 42 43 45 48 49 41
8 6 13 11 28 22 26 13 11 34 15 27 28 30 24 22 22 25 29 33 35 38 39 42 40 37 32 27 25 26 25 24 23 21 24 29 33 38 43 48 50 48 46 42 41 40 41 39 41
15 14 11 22 18 13 12 13 14 7 20 27 26 26 24 27 31 33 33 35 40 43 44 44 41 34 27 22 19 16 14 16 20 27 32 37 43 47 46 46 45 44 42 36 33 33 36 34 34
23 22 20 18 33 39 33 30 10 23 22 21 24 25 28 32 30 28 29 37 39 42 46 49 40 31 23 14 13 12 15 18 23 32 34 38 38 41 45 45 45 43 41 40 36 31 32 35 34
24 48 38 26 30 20 21 18 12 16 11 11 19 21 27 26 20 21 26 34 38 42 50 52 45 37 26 19 18 18 20 25 31 33 35 34 37 43 42 44 46 45 46 45 42 40 37 37 37
46 30 27 20 11 14 19 22 15 12 11 17 12 15 20 18 15 17 23 29 35 42 48 54 48 35 24 20 18 21 23 26 29 29 31 37 41 42 41 45 47 48 48 45 46 43 39 35 35
11 11 11 7 8 6 4 8 4 10 6 14 9 10 17 16 14 13 17 24 32 34 43 51 50 35 26 23 22 22 23 25 24 29 33 37 40 42 44 46 48 50 49 48 46 46 43 38 35
5 5 8 11 5 2 3 17 21 13 3 3 3 9 13 15 12 5 9 17 23 34 41 50 49 34 26 25 25 24 24 22 27 31 33 36 40 43 46 49 50 50 49 46 44 38 38 38 36
12 9 7 9 7 4 11 14 26 19 16 12 12 14 17 15 11 4 5 10 22 30 36 44 44 30 22 22 24 24 24 25 27 30 33 37 42 46 49 49 47 44 43 40 44 41 31 30 34
6 13 17 4 6 3 7 18 27 25 21 17 16 17 20 18 15 10 10 8 16 27 31 36 38 31 21 20 22 25 27 26 26 29 35 40 44 47 48 45 43 42 42 43 43 43 35 28 33
18 28 12 10 4 1 10 9 16 18 15 21 23 23 23 22 22 17 15 10 13 21 23 28 35 32 26 25 26 28 28 27 28 32 36 41 44 47 45 44 42 42 42 42 43 45 41 31 32
11 7 17 10 13 13 10 6 14 12 19 21 27 27 27 29 27 24 20 16 14 16 17 23 28 29 25 23 27 27 27 26 26 30 35 42 45 46 42 40 39 41 43 42 43 42 42 39 27
9 4 19 27 10 2 4 5 12 13 18 23 29 33 31 32 31 27 26 22 16 12 15 20 25 25 26 18 21 27 28 29 32 33 35 40 44 42 41 38 38 40 42 42 42 40 40 36 33
8 20 23 12 7 4 8 8 6 5 20 26 34 35 32 33 35 33 31 27 15 12 15 18 23 23 25 14 18 23 25 28 30 30 31 37 40 39 39 38 39 39 43 43 43 40 36 32 28
38 21 12 7 2 6 4 5 6 12 20 16 32 42 37 36 37 32 30 28 17 12 15 14 19 17 23 14 16 19 22 23 27 28 29 37 38 37 37 39 38 40 42 44 43 39 33 28 26
6 12 4 4 6 3 6 6 13 15 20 18 26 34 34 37 31 30 34 26 16 14 13 12 16 13 20 15 14 17 21 22 26 28 30 35 37 38 39 39 39 41 42 43 39 34 30 25 23
27 5 6 7 5 3 5 9 1 3 12 18 23 31 31 34 35 34 32 23 14 14 11 10 13 7 14 14 14 17 19 20 24 26 28 31 34 36 36 35 36 37 40 44 38 30 29 26 19
12 11 5 11 2 6 2 8 18 6 6 15 17 27 34 40 40 37 33 24 16 11 10 10 13 7 7 13 14 17 19 18 20 25 26 28 31 32 31 31 33 35 38 41 39 31 28 28 25
5 16 4 3 1 3 5 8 8 8 13 16 20 29 33 33 34 40 32 23 17 9 11 11 13 11 6 8 12 17 19 18 18 22 24 25 27 28 26 26 27 32 36 39 38 35 30 25 25
8 6 9 5 4 3 4 5 9 12 12 21 30 31 34 36 37 39 34 25 19 13 12 13 14 15 12 9 11 14 17 19 18 20 21 23 25 26 22 20 22 26 30 34 37 36 34 31 30
1 3 9 5 4 1 3 7 1 6 7 23 28 28 30 33 35 35 34 27 21 16 13 14 14 13 13 14 14 15 17 19 21 20 19 21 22 23 20 19 18 21 23 29 32 34 36 37 33
Wind_Direction_850mb
92 115 113 26 84 74 57 27 341 41 56 33 66 73 80 54 34 68 85 71 94 100 99 88 78 71 57 38 27 26 22 18 14 9 2 346 330 316 305 294 281 269 264 261 267 276 282 291 308
73 88 42 39 74 69 61 39 63 82 88 83 80 89 73 64 44 65 64 90 106 102 98 86 65 52 40 23 12 12 15 15 12 8 355 341 330 323 314 303 293 284 275 269 266 269 276 282 288
84 66 42 56 61 71 73 69 77 44 43 53 91 59 48 5 20 36 69 100 92 75 56 36 20 18 10 9 3 1 6 9 7 356 350 347 337 326 315 297 282 274 274 274 269 267 269 269 268
73 58 64 67 75 67 89 85 61 61 55 54 106 77 78 24 32 55 92 96 79 57 35 11 356 341 341 344 353 352 349 348 352 348 349 344 339 333 327 312 296 285 278 271 268 264 259 260 256
52 53 68 87 72 74 81 86 70 26 62 46 81 95 78 36 56 73 86 90 83 33 2 350 348 331 323 334 339 339 335 335 338 336 343 342 339 337 332 324 309 295 286 280 277 272 270 266 262
18 57 104 101 91 87 86 94 93 75 59 76 68 76 58 23 72 72 97 113 33 12 6 357 349 342 322 328 319 325 321 320 318 332 336 336 337 336 334 329 320 311 301 294 289 288 283 271 267
46 54 97 125 117 104 89 88 72 76 73 45 81 75 77 46 78 98 113 75 38 28 12 9 360 359 344 336 331 330 316 308 322 322 323 329 328 329 325 325 317 311 305 303 299 290 287 279 270
126 92 131 91 144 113 85 103 95 83 51 75 71 74 82 77 93 129 97 49 41 28 16 10 9 6 5 354 342 330 324 317 317 319 324 333 330 328 329 328 326 324 322 318 314 309 300 285 273
101 110 141 135 161 140 122 117 75 84 90 83 88 87 92 98 99 99 72 49 32 26 18 16 7 358 352 343 338 335 331 323 320 321 325 334 345 345 339 332 330 329 326 321 315 315 317 315 287
51 73 145 52 132 135 98 98 108 124 107 80 80 87 92 118 110 83 61 48 28 16 7 360 354 349 346 340 338 337 333 329 323 327 347 359 352 346 338 328 324 321 315 312 308 306 307 307 301
59 109 120 86 124 114 97 91 114 132 101 77 91 97 110 101 77 62 52 38 26 16 4 0 353 345 338 339 341 337 341 349 346 353 356 351 345 340 335 333 330 327 323 320 315 311 312 309 305
107 80 95 134 101 94 79 93 124 92 96 105 90 118 93 77 70 61 51 37 25 16 14 8 4 358 354 350 348 360 353 359 352 352 346 346 344 342 346 351 353 355 353 347 336 328 323 321 318
94 106 80 105 99 94 103 81 79 83 93 107 85 89 87 82 69 60 48 37 26 21 17 13 9 4 7 6 21 25 21 12 9 352 348 348 356 2 3 7 8 7 4 359 352 336 328 328 326
115 113 115 108 102 101 81 56 137 90 85 72 71 94 96 89 86 85 57 42 31 24 20 17 15 21 20 13 14 16 12 2 350 350 355 6 9 8 11 10 9 7 5 3 357 349 332 317 317
125 109 116 137 118 111 88 61 89 109 82 73 68 116 116 110 103 81 59 40 32 25 18 20 21 16 18 17 15 9 359 349 346 360 8 6 5 6 8 5 2 359 357 356 355 353 349 335 320
129 145 140 135 158 72 196 146 147 147 78 60 66 138 144 138 121 81 48 34 26 24 19 20 21 16 17 14 10 2 356 355 5 10 6 3 5 10 5 358 352 351 350 348 346 343 347 348 345
195 167 142 158 238 151 8 147 176 200 174 46 135 170 174 164 140 89 38 27 18 21 18 16 15 11 14 15 15 16 17 17 14 7 6 11 11 5 358 352 347 346 347 349 349 345 341 345 348
200 187 160 179 165 150 100 145 164 194 208 210 214 203 198 184 176 205 343 2 15 6 10 15 15 9 10 15 14 16 14 13 13 16 17 14 6 358 353 352 352 355 355 354 357 358 352 345 346
229 147 125 93 65 117 107 170 177 188 200 215 220 210 207 202 205 228 268 327 354 359 3 11 15 21 28 29 29 26 21 22 21 18 16 9 3 358 358 2 4 9 5 3 0 5 2 358 352
151 131 113 110 55 156 145 170 208 211 216 219 227 216 215 203 218 228 254 289 333 339 358 8 13 21 27 32 27 21 18 23 22 16 11 7 4 2 3 6 9 9 8 6 4 4 5 5 1
123 135 165 136 119 72 150 217 218 218 225 229 233 232 219 214 216 230 247 269 294 325 348 1 12 20 22 28 26 26 28 25 15 12 9 7 4 3 4 5 7 6 2 360 360 358 357 356 360
154 202 142 134 178 155 312 297 235 216 237 230 222 210 207 213 220 228 242 258 272 308 340 349 7 13 14 24 28 30 28 19 10 6 5 3 1 2 3 3 4 2 1 0 359 355 355 353 353
97 138 119 122 91 167 196 260 127 224 248 239 227 217 212 210 213 226 238 248 257 298 326 342 360 4 4 18 24 22 21 15 11 5 2 2 2 3 6 7 7 3 2 358 352 351 353 354 357
135 114 87 98 113 266 126 276 203 186 222 237 222 224 220 213 211 216 229 239 245 280 312 332 351 355 4 11 11 13 10 7 6 3 5 6 9 10 10 10 10 4 1 359 358 357 356 358 9
154 153 131 241 216 260 121 234 274 193 210 224 216 215 213 210 212 208 219 230 235 264 299 325 342 347 3 5 6 6 2 1 2 4 7 9 12 11 12 13 9 9 7 359 355 359 359 3 7
177 222 267 273 237 77 159 242 7 225 269 239 212 203 198 199 213 206 214 221 229 253 295 312 329 326 5 13 9 360 358 358 1 5 6 6 7 8 13 12 14 16 13 13 10 7 8 6 4
175 212 90 107 13 243 227 271 266 239 220 210 190 191 196 207 215 208 210 217 232 249 298 296 309 289 349 10 10 5 359 358 359 3 3 4 6 7 12 13 20 19 18 16 16 14 13 18 18
221 132 190 130 157 294 228 281 276 257 219 205 206 208 209 209 198 205 209 218 228 246 268 274 297 273 279 346 358 4 6 360 358 359 360 0 3 7 9 15 23 26 26 25 25 24 25 23 19
153 170 73 91 317 265 272 297 216 253 232 215 218 213 212 203 195 207 210 213 221 239 257 266 286 266 269 293 329 345 358 5 354 350 350 354 357 1 3 10 18 21 23 25 28 26 24 21 20
111 165 166 246 207 88 313 274 198 227 259 227 225 222 215 207 200 208 214 214 220 228 251 261 279 268 260 272 293 315 330 341 345 340 339 345 347 352 351 357 360 4 5 10 15 16 16 16 8